EW7948 Weather Reports


Display with metric or nautical units.
time (UTC)temp
F
wind
direction
speed
MPH
gust
MPH
rain 1hr
in
rain 24hr
in
rain mn
in
humidity
%
barometer
mb
20260906093033 62 53 0.0 1.0 0.00 0.00 0.00 46 1005.4
20260906091519 62 53 0.0 2.0 0.00 0.00 0.00 47 1005.3
20260906090019 62 53 0.0 2.0 0.00 0.00 0.00 43 1005.3
20260906084521 63 53 0.0 0.0 0.00 0.00 0.00 57 1005.2
20260906083018 63 53 0.0 1.0 0.00 0.00 0.00 46 1005.0
20260906081515 63 53 0.0 2.0 0.00 0.00 0.00 46 1005.1
20260906080111 64 53 0.0 2.0 0.00 0.00 0.00 51 1005.1
20260906074530 64 53 0.0 1.0 0.00 0.00 0.00 53 1005.2
20260906073059 65 53 0.0 0.0 0.00 0.00 0.00 50 1005.1
20260906071602 66 53 0.0 1.0 0.00 0.00 0.00 54 1005.4
20260906070053 67 53 0.0 0.0 0.00 0.00 0.00 48 1005.2
20260906064551 68 53 0.0 1.0 0.00 0.00 0.00 42 1005.1
20260906063054 69 53 0.0 0.0 0.00 0.00 0.00 46 1005.0
20260906061556 70 53 0.0 1.0 0.00 0.00 0.00 39 1005.2
20260906060046 70 53 0.0 1.0 0.00 0.00 0.00 38 1005.1
20260906054546 71 53 0.0 6.0 0.00 0.00 0.00 35 1005.0
20260906053051 70 339 0.0 4.0 0.00 0.00 0.00 36 1004.9
20260906051545 70 339 1.0 2.0 0.00 0.00 0.00 41 1004.8
20260906050046 71 339 0.0 4.0 0.00 0.00 0.00 42 1004.8
20260906044544 73 339 2.0 4.0 0.00 0.00 0.00 42 1004.7
20260906043043 76 330 2.0 4.0 0.00 0.00 0.00 36 1004.7
20260906041543 80 178 1.0 4.0 0.00 0.00 0.00 28 1004.7
20260906040043 81 178 0.0 3.0 0.00 0.00 0.00 20 1004.6
20260906034547 82 175 4.0 8.0 0.00 0.00 0.00 20 1004.5
20260906033041 82 182 3.0 10.0 0.00 0.00 0.00 20 1004.4
20260906031541 82 180 0.0 5.0 0.00 0.00 0.00 21 1004.2
20260906030041 82 192 2.0 6.0 0.00 0.00 0.00 20 1003.9
20260906024551 83 191 3.0 7.0 0.00 0.00 0.00 20 1003.8
20260906023038 83 188 3.0 6.0 0.00 0.00 0.00 20 1003.4
20260906021538 84 184 1.0 5.0 0.00 0.00 0.00 20 1003.3
20260906020046 86 159 0.0 2.0 0.00 0.00 0.00 20 1003.2
20260906014550 87 159 2.0 7.0 0.00 0.00 0.00 17 1003.2
20260906013036 88 182 3.0 9.0 0.00 0.00 0.00 17 1003.4
20260906011541 89 222 5.0 8.0 0.00 0.00 0.00 16 1003.4
20260906010036 90 181 6.0 9.0 0.00 0.00 0.00 16 1003.5
20260906004541 91 159 3.0 8.0 0.00 0.00 0.00 16 1003.5
20260906003047 92 220 1.0 6.0 0.00 0.00 0.00 15 1003.4
20260906001504 92 182 1.0 3.0 0.00 0.00 0.00 15 1003.4
20260906000003 92 198 6.0 13.0 0.00 0.00 0.00 14 1003.4
20260905234503 93 190 3.0 11.0 0.00 0.00 0.00 14 1003.5
20260905233003 93 187 5.0 13.0 0.00 0.00 0.00 14 1003.6
20260905231502 94 187 5.0 11.0 0.00 0.00 0.00 14 1003.8
20260905230001 94 158 6.0 10.0 0.00 0.00 0.00 13 1003.8
20260905224601 94 219 7.0 14.0 0.00 0.00 0.00 13 1003.8
20260905223009 93 219 5.0 12.0 0.00 0.00 0.00 13 1004.0
20260905221527 93 209 3.0 14.0 0.00 0.00 0.00 13 1004.2
20260905220016 93 206 6.0 12.0 0.00 0.00 0.00 12 1004.5
20260905214512 93 252 4.0 13.0 0.00 0.00 0.00 12 1004.5
20260905213039 93 234 6.0 12.0 0.00 0.00 0.00 13 1004.7
20260905211614 93 215 4.0 16.0 0.00 0.00 0.00 13 1004.9
20260905210027 93 239 5.0 14.0 0.00 0.00 0.00 13 1005.1
20260905204510 93 200 7.0 14.0 0.00 0.00 0.00 12 1005.3
20260905203014 92 202 6.0 15.0 0.00 0.00 0.00 13 1005.4
20260905201523 92 171 8.0 16.0 0.00 0.00 0.00 13 1005.5
20260905200054 92 156 8.0 15.0 0.00 0.00 0.00 14 1005.9
20260905194548 92 208 3.0 6.0 0.00 0.00 0.00 14 1006.0
20260905193004 91 237 5.0 12.0 0.00 0.00 0.00 16 1006.2
20260905191518 90 217 5.0 19.0 0.00 0.00 0.00 15 1006.4
20260905190029 90 279 5.0 14.0 0.00 0.00 0.00 15 1006.5
20260905184611 90 200 6.0 13.0 0.00 0.00 0.00 18 1006.7
20260905183009 89 165 5.0 16.0 0.00 0.00 0.00 17 1006.9
20260905181523 88 221 4.0 16.0 0.00 0.00 0.00 18 1006.8
20260905180032 88 250 8.0 20.0 0.00 0.00 0.00 21 1006.8
20260905174531 88 213 7.0 12.0 0.00 0.00 0.00 23 1006.9
20260905173026 88 263 4.0 10.0 0.00 0.00 0.00 26 1007.0
20260905171513 87 145 1.0 9.0 0.00 0.00 0.00 27 1007.1
20260905170013 86 112 1.0 6.0 0.00 0.00 0.00 27 1007.1
20260905164558 85 111 2.0 8.0 0.00 0.00 0.00 28 1007.2
20260905163107 83 161 3.0 7.0 0.00 0.00 0.00 31 1007.3
20260905161558 80 166 1.0 5.0 0.00 0.00 0.00 34 1007.2
20260905160055 77 80 0.0 2.0 0.00 0.00 0.00 38 1007.3
20260905154556 74 72 0.0 1.0 0.00 0.00 0.00 42 1007.2
20260905153046 72 72 2.0 5.0 0.00 0.00 0.00 48 1007.1
20260905151550 71 74 1.0 3.0 0.00 0.00 0.00 49 1007.1
20260905150052 70 74 0.0 1.0 0.00 0.00 0.00 52 1007.1
20260905144547 69 74 0.0 2.0 0.00 0.00 0.00 54 1007.1
20260905143049 70 83 5.0 7.0 0.00 0.00 0.00 49 1006.8
20260905141532 70 209 3.0 5.0 0.00 0.00 0.00 43 1006.7
20260905140031 68 212 4.0 6.0 0.00 0.00 0.00 47 1006.3
20260905134529 66 219 3.0 4.0 0.00 0.00 0.00 50 1006.2
20260905133026 65 236 1.0 3.0 0.00 0.00 0.00 49 1006.1
20260905131538 64 238 3.0 4.0 0.00 0.00 0.00 52 1005.9
20260905130025 63 268 0.0 1.0 0.00 0.00 0.00 58 1005.7
20260905124524 63 268 0.0 1.0 0.00 0.00 0.00 61 1005.6
20260905123019 63 268 1.0 3.0 0.00 0.00 0.00 60 1005.4
20260905121518 63 268 0.0 2.0 0.00 0.00 0.00 60 1005.2
20260905120017 63 268 2.0 3.0 0.00 0.00 0.00 61 1005.4
20260905114522 64 268 0.0 6.0 0.00 0.00 0.00 60 1005.2
20260905113015 65 53 0.0 2.0 0.00 0.00 0.00 54 1005.3
20260905111510 65 53 1.0 3.0 0.00 0.00 0.00 54 1005.2
20260905110009 65 53 0.0 2.0 0.00 0.00 0.00 54 1005.2
20260905104512 66 53 0.0 1.0 0.00 0.00 0.00 52 1005.1
20260905103010 67 53 0.0 2.0 0.00 0.00 0.00 50 1005.1
20260905101503 68 53 0.0 3.0 0.00 0.00 0.00 45 1005.0
20260905100109 67 51 1.0 3.0 0.00 0.00 0.00 45 1004.8
20260905094559 68 50 1.0 3.0 0.00 0.00 0.00 45 1004.7